Orbital Elements at Epoch 2459000.5 (2020-May-31.0) TDB
Reference: JPL 16 (heliocentric ecliptic J2000)
Element | Value | Uncertainty (1-sigma) | Units |
e | .1216589872835563 | 4.7213e-08 | |
a | 2.258409930199233 | 9.7609e-09 | au |
q | 1.983654065220067 | 1.0568e-07 | au |
i | 2.459059210697788 | 4.1111e-06 | deg |
node | 307.2598975522712 | 0.00012957 | deg |
peri | 103.7404520332949 | 0.00013121 | deg |
M | 315.1074402774852 | 1.8507e-05 | deg |
tp | 2459155.087529716539 (2020-Nov-01.58752972) | 6.3555e-05 | TDB |
period | 1239.660002502446 3.39 | 8.0367e-06 2.2e-08 | d yr |
n | .2904022064705517 | 1.8827e-09 | deg/d |
Q | 2.533165795178399 | 1.0948e-08 | au |
|
| | Orbit Determination Parameters
Additional Information
|